GIA284 WAMM-WAJJ

Flight info

Callsign GIA284
Flight time N/A
Altitude 35000
Route HALMO DCT BIK DCT GUKIR DCT VANKA
Aircraft B738/M-SDE2E3FGHIRWXY/LB1

Departure

Time 2026-04-18 16:24
Airport Sam Ratulangi International Airport (WAMM)

Arrival

Time N/A
Airport Dortheys Hiyo Eluay International Airport (WAJJ)
Time Latitude Longitude Altitude Speed Heading
2026-04-18 16:21 1.54065 124.92390 331 ft 0 kts 192°
2026-04-18 16:21 1.54057 124.92391 335 ft 4 kts 168°
2026-04-18 16:22 1.53994 124.92416 333 ft 15 kts 155°
2026-04-18 16:22 1.53875 124.92431 335 ft 18 kts 179°
2026-04-18 16:22 1.53758 124.92449 332 ft 14 kts 134°
2026-04-18 16:22 1.53744 124.92490 334 ft 0 kts 91°
2026-04-18 16:23 1.53744 124.92511 333 ft 8 kts 91°
2026-04-18 16:23 1.53977 124.92599 334 ft 61 kts
2026-04-18 16:24 1.54700 124.92623 334 ft 144 kts
2026-04-18 16:24 1.55907 124.92660 600 ft 191 kts
2026-04-18 16:24 1.57223 124.92533 1777 ft 193 kts 350°
2026-04-18 16:24 1.58631 124.92205 2221 ft 221 kts 347°
2026-04-18 16:25 1.60203 124.91815 2562 ft 239 kts 347°
2026-04-18 16:25 1.61849 124.91420 3186 ft 246 kts 347°
2026-04-18 16:25 1.63565 124.91022 3633 ft 262 kts 347°
2026-04-18 16:25 1.65389 124.90604 4247 ft 273 kts 347°
2026-04-18 16:26 1.67239 124.90330 5157 ft 275 kts
2026-04-18 16:26 1.69057 124.90894 6012 ft 278 kts 27°
2026-04-18 16:26 1.70801 124.91790 6773 ft 285 kts 26°
2026-04-18 16:26 1.72581 124.92687 7565 ft 288 kts 26°
2026-04-18 16:27 1.74382 124.93589 8385 ft 291 kts 26°
2026-04-18 16:27 1.76207 124.94500 9183 ft 295 kts 26°
2026-04-18 16:27 1.78059 124.95422 9976 ft 299 kts 26°
2026-04-18 16:27 1.79957 124.96366 10454 ft 315 kts 26°
2026-04-18 16:28 1.81999 124.97380 10609 ft 340 kts 26°
2026-04-18 16:28 1.84135 124.98536 10883 ft 357 kts 36°
2026-04-18 16:28 1.85811 125.00381 11434 ft 364 kts 61°
2026-04-18 16:28 1.86607 125.02775 12126 ft 366 kts 84°
2026-04-18 16:29 1.86413 125.05306 12784 ft 369 kts 107°
2026-04-18 16:29 1.85355 125.07649 13425 ft 372 kts 120°
2026-04-18 16:29 1.84111 125.09934 13999 ft 376 kts 119°
2026-04-18 16:29 1.82861 125.12253 14549 ft 381 kts 119°
2026-04-18 16:30 1.81615 125.14598 15116 ft 384 kts 119°
2026-04-18 16:30 1.80367 125.16975 15681 ft 388 kts 118°
2026-04-18 16:30 1.79114 125.19374 16238 ft 391 kts 118°
2026-04-18 16:30 1.77845 125.21794 16779 ft 395 kts 119°
2026-04-18 16:31 1.76541 125.24182 17317 ft 398 kts 120°
2026-04-18 16:31 1.75182 125.26613 17848 ft 402 kts 121°
2026-04-18 16:31 1.73808 125.29057 18347 ft 405 kts 121°
2026-04-18 16:31 1.72421 125.31526 18794 ft 409 kts 120°
2026-04-18 16:32 1.71027 125.34017 19241 ft 412 kts 120°
2026-04-18 16:32 1.69626 125.36526 19687 ft 415 kts 120°
2026-04-18 16:32 1.68216 125.39058 20118 ft 418 kts 120°
2026-04-18 16:32 1.66798 125.41605 20529 ft 422 kts 120°
2026-04-18 16:33 1.65369 125.44177 20936 ft 425 kts 120°
2026-04-18 16:33 1.63931 125.46762 21366 ft 427 kts 120°
2026-04-18 16:33 1.62480 125.49373 21762 ft 430 kts 120°
2026-04-18 16:33 1.61023 125.51994 22157 ft 433 kts 120°
2026-04-18 16:34 1.59553 125.54638 22533 ft 437 kts 120°
2026-04-18 16:34 1.58073 125.57299 22903 ft 440 kts 120°
2026-04-18 16:34 1.56582 125.59982 23265 ft 443 kts 120°
2026-04-18 16:34 1.55084 125.62676 23604 ft 445 kts 120°
2026-04-18 16:35 1.53576 125.65386 23924 ft 447 kts 120°
2026-04-18 16:35 1.52575 125.67187 24155 ft 447 kts 120°
2026-04-18 16:35 1.51063 125.69907 24499 ft 448 kts 120°
2026-04-18 16:35 1.49547 125.72632 24804 ft 450 kts 120°
2026-04-18 16:36 1.48021 125.75375 25130 ft 451 kts 120°
2026-04-18 16:36 1.45998 125.79013 25547 ft 453 kts 120°
2026-04-18 16:36 1.44961 125.80877 25753 ft 454 kts 120°
2026-04-18 16:36 1.42923 125.84540 26148 ft 456 kts 120°
2026-04-18 16:37 1.41880 125.86415 26352 ft 457 kts 120°
2026-04-18 16:37 1.40334 125.89194 26654 ft 459 kts 120°
2026-04-18 16:37 1.38779 125.91989 26950 ft 460 kts 120°
2026-04-18 16:37 1.37222 125.94788 27218 ft 462 kts 120°
2026-04-18 16:38 1.35658 125.97598 27491 ft 463 kts 120°
2026-04-18 16:38 1.34090 126.00417 27773 ft 465 kts 120°
2026-04-18 16:38 1.32516 126.03246 28052 ft 466 kts 120°
2026-04-18 16:38 1.30940 126.06080 28321 ft 467 kts 120°
2026-04-18 16:39 1.29358 126.08923 28580 ft 469 kts 120°
2026-04-18 16:39 1.27792 126.11739 28828 ft 470 kts 119°
2026-04-18 16:39 1.26179 126.14637 29089 ft 472 kts 119°
2026-04-18 16:39 1.24602 126.17473 29325 ft 473 kts 119°
2026-04-18 16:40 1.23003 126.20351 29554 ft 475 kts 119°
2026-04-18 16:40 1.21400 126.23239 29801 ft 476 kts 119°
2026-04-18 16:40 1.19793 126.26134 30037 ft 477 kts 119°
2026-04-18 16:40 1.18188 126.29027 30304 ft 476 kts 119°
2026-04-18 16:41 1.14995 126.34782 30993 ft 471 kts 120°
2026-04-18 16:41 1.13411 126.37636 31308 ft 469 kts 120°
2026-04-18 16:41 1.11828 126.40489 31604 ft 469 kts 120°
2026-04-18 16:42 1.10251 126.43331 31908 ft 468 kts 120°
2026-04-18 16:42 1.08676 126.46168 32248 ft 466 kts 120°
2026-04-18 16:42 1.07110 126.48990 32601 ft 464 kts 120°
2026-04-18 16:42 1.05547 126.51806 32917 ft 463 kts 120°
2026-04-18 16:43 1.03987 126.54618 33240 ft 461 kts 120°
2026-04-18 16:43 1.02433 126.57416 33589 ft 460 kts 120°
2026-04-18 16:43 1.01079 126.60295 33898 ft 460 kts 107°
2026-04-18 16:43 1.00376 126.63400 34229 ft 457 kts 102°
2026-04-18 16:44 0.99728 126.66503 34564 ft 454 kts 103°
2026-04-18 16:44 0.99059 126.69578 34845 ft 453 kts 103°
2026-04-18 16:44 0.98369 126.72656 34878 ft 456 kts 104°
2026-04-18 16:45 0.96952 126.78824 34878 ft 454 kts 104°
2026-04-18 16:45 0.95534 126.84942 34894 ft 450 kts 104°
2026-04-18 16:46 0.94127 126.91018 34891 ft 448 kts 104°
2026-04-18 16:46 0.92726 126.97074 34897 ft 447 kts 104°
2026-04-18 16:47 0.91338 127.03077 34891 ft 447 kts 104°
2026-04-18 16:47 0.89937 127.09140 34895 ft 448 kts 104°
2026-04-18 16:48 0.88533 127.15214 34900 ft 449 kts 104°
2026-04-18 16:48 0.87124 127.21310 34902 ft 451 kts 104°
2026-04-18 16:49 0.85709 127.27432 34899 ft 453 kts 104°
2026-04-18 16:49 0.84288 127.33580 34902 ft 454 kts 104°
2026-04-18 16:50 0.82866 127.39732 34901 ft 455 kts 104°
2026-04-18 16:50 0.81442 127.45893 34901 ft 456 kts 104°
2026-04-18 16:51 0.80165 127.51415 34905 ft 456 kts 104°
2026-04-18 16:51 0.78739 127.57584 34905 ft 455 kts 104°
2026-04-18 16:52 0.77315 127.63743 34903 ft 455 kts 104°
2026-04-18 16:52 0.75893 127.69894 34914 ft 454 kts 104°
2026-04-18 16:53 0.74474 127.76029 34911 ft 453 kts 104°
2026-04-18 16:53 0.73057 127.82152 34921 ft 452 kts 104°
2026-04-18 16:54 0.71644 127.88262 34922 ft 451 kts 104°
2026-04-18 16:54 0.70244 127.94312 34918 ft 450 kts 104°
2026-04-18 16:55 0.68837 128.00398 34919 ft 449 kts 104°
2026-04-18 16:55 0.67489 128.06225 34913 ft 449 kts 104°
2026-04-18 16:56 0.66085 128.12293 34920 ft 448 kts 105°
2026-04-18 16:56 0.64647 128.18505 34916 ft 448 kts 104°
2026-04-18 16:57 0.61842 128.30629 34917 ft 448 kts 104°
2026-04-18 16:57 0.59037 128.42750 34911 ft 448 kts 104°
2026-04-18 16:58 0.56230 128.54879 34904 ft 448 kts 104°
2026-04-18 16:58 0.53425 128.66993 34867 ft 447 kts 103°
2026-04-18 16:59 0.50629 128.79067 34891 ft 446 kts 103°
2026-04-18 16:59 0.47842 128.91114 34898 ft 445 kts 103°
2026-04-18 17:00 0.45053 129.03158 34898 ft 444 kts 103°
2026-04-18 17:00 0.42273 129.15167 34893 ft 444 kts 103°
2026-04-18 17:01 0.39491 129.27180 34897 ft 444 kts 103°
2026-04-18 17:01 0.36709 129.39193 34894 ft 444 kts 102°
2026-04-18 17:02 0.33925 129.51215 34898 ft 444 kts 102°
2026-04-18 17:02 0.31139 129.63244 34899 ft 445 kts 102°
2026-04-18 17:03 0.28350 129.75284 34900 ft 445 kts 102°
2026-04-18 17:03 0.25554 129.87354 34895 ft 446 kts 102°
2026-04-18 17:04 0.22761 129.99411 34902 ft 446 kts 102°
2026-04-18 17:04 0.19983 130.11406 34903 ft 446 kts 102°
2026-04-18 17:05 0.17186 130.23480 34900 ft 446 kts 102°
2026-04-18 17:05 0.14388 130.35556 34900 ft 446 kts 102°
2026-04-18 17:06 0.11590 130.47635 34900 ft 446 kts 102°
2026-04-18 17:06 0.08793 130.59705 34901 ft 446 kts 102°
2026-04-18 17:07 0.05997 130.71774 34903 ft 445 kts 102°
2026-04-18 17:07 0.03207 130.83816 34905 ft 445 kts 102°
2026-04-18 17:08 -0.02237 131.07317 34902 ft 444 kts 102°
2026-04-18 17:08 -0.07809 131.31364 34899 ft 444 kts 102°
2026-04-18 17:09 -0.13369 131.55366 34899 ft 443 kts 102°
2026-04-18 17:09 -0.18922 131.79333 34897 ft 442 kts 103°
2026-04-18 17:10 -0.24464 132.03259 34897 ft 441 kts 103°
2026-04-18 17:10 -0.29996 132.27142 34913 ft 440 kts 103°
2026-04-18 17:11 -0.35508 132.50942 34927 ft 439 kts 103°
2026-04-18 17:11 -0.41017 132.74730 34939 ft 439 kts 103°
2026-04-18 17:12 -0.46514 132.98472 34932 ft 438 kts 102°
2026-04-18 17:12 -0.51964 133.22013 34917 ft 437 kts 102°
2026-04-18 17:13 -0.57444 133.45688 34908 ft 437 kts 103°
2026-04-18 17:13 -0.62920 133.69352 34908 ft 437 kts 103°